Portada
METAR-TAF:

METAR-TAF

Aeropuertos :

Claremore, Oklahoma, Estados Unidos

latitud: 36-17-40N, longitud: 095-28-47W, altitud: 221 m

Observación

El informe se hizo hace 22 minutos, a las 21:55 UTC
Viento 9 kt del norte con ráfagas de 17 kt
Temperatura 7°C
Humedad 57%
Presión 1025 hPa
Visibilidad: 16.1 km
Cielo cubierto a una altura de 2200 ft

METAR: KGCM 232155Z AUTO 36009G17KT 10SM OVC022 07/M01 A3027 RMK AO2

Hora: 17:17 (22:17 UTC)


TAF: falta

Observaciones y pronósticos meteorológicos de más de 4000 aeropuertos (mensajes METAR y TAF).

Los puntos amarillos y rojos representan las estaciones disponibles.

Ponga el ratón en el punto deseado para ver el nombre de la estación.

Haga clic para ver las observaciones y los pronósticos meteorológicos.

Para cambiar el mapa : haga clic en los botones verdes con una cruz de color negro para hacer un zoom, en el botón verde con un guión para alejar o en las flechas verdes para mapas adyacentes.


METAR-TAF: